This is the latest recevied weather packets stored in our database for station/object SA6BET-2. If no packets are shown the sender has not sent any weather packets the latest 10 day(s).
| Time | Temp. | Humidity | Pressure | Rain* | Wind** | Luminosity | Snow |
|---|---|---|---|---|---|---|---|
| 1778106874 | 18.33° C | 100% | 1014.6 hPa | - | - | - | - |
| 1778105974 | 18.33° C | 100% | 1014.6 hPa | - | - | - | - |
| 1778105074 | 18.33° C | 100% | 1014.6 hPa | - | - | - | - |
| 1778104174 | 18.89° C | 100% | 1014.9 hPa | - | - | - | - |
| 1778103274 | 18.89° C | 100% | 1014.9 hPa | - | - | - | - |
| 1778102374 | 18.89° C | 100% | 1015.2 hPa | - | - | - | - |
| 1778101473 | 18.89° C | 100% | 1015.1 hPa | - | - | - | - |
| 1778100573 | 18.89° C | 100% | 1015 hPa | - | - | - | - |
| 1778099672 | 18.89° C | 100% | 1014.9 hPa | - | - | - | - |
| 1778098772 | 19.44° C | 100% | 1014.7 hPa | - | - | - | - |
| 1778097872 | 19.44° C | 100% | 1014.4 hPa | - | - | - | - |
| 1778096972 | 19.44° C | 100% | 1014.3 hPa | - | - | - | - |
| 1778096071 | 19.44° C | 100% | 1014.1 hPa | - | - | - | - |
| 1778095171 | 19.44° C | 100% | 1014 hPa | - | - | - | - |
| 1778094271 | 19.44° C | 100% | 1013.8 hPa | - | - | - | - |
| 1778093371 | 20° C | 100% | 1013.8 hPa | - | - | - | - |
| 1778092471 | 20° C | 100% | 1013.6 hPa | - | - | - | - |
| 1778091571 | 20° C | 100% | 1013.5 hPa | - | - | - | - |
| 1778090670 | 20.56° C | 100% | 1013.6 hPa | - | - | - | - |
| 1778089770 | 21.11° C | 100% | 1013.4 hPa | - | - | - | - |
| 1778088870 | 21.67° C | 100% | 1013.5 hPa | - | - | - | - |
| 1778087970 | 22.22° C | 100% | 1013.4 hPa | - | - | - | - |
| 1778087070 | 22.78° C | 100% | 1013.4 hPa | - | - | - | - |
| 1778086166 | 23.33° C | 100% | 1013.2 hPa | - | - | - | - |
| 1778085266 | 24.44° C | 100% | 1013.2 hPa | - | - | - | - |
* Rain since midnight (hover to see other rain measurements)
** Current wind speed in m/s (hover to see current wind gust speed)